Middletown, PA

9:47 AM EDT on April 20, 2018 (GMT -0400)
Harrisburg International

Weather History for KMDT - July, 2013

Change the Weather History Date:

Tuesday, July 2, 2013

  Actual Average Record
Temperature  
Mean Temperature 79 °F 75 °F  
Max Temperature 84 °F 85 °F 104 °F (1966)
Min Temperature 74 °F 66 °F 50 °F (1982)
Degree Days  
Heating Degree Days 0 0  
Month to date heating degree days 0 0  
Since 1 June heating degree days 2 18  
Since 1 July heating degree days 0 0  
Cooling Degree Days 14 10  
Month to date cooling degree days 26 20  
Year to date cooling degree days 333 298  
Since 1 June cooling degree days 250 233  
Growing Degree Days 28 (Base 50)    
Moisture  
Dew Point 70 °F    
Average Humidity 79    
Maximum Humidity 93    
Minimum Humidity 65    
Precipitation  
Precipitation 0.04 in 0.14 in 2.18 in (1924)
Month to date precipitation 0.22 0.29  
Year to date precipitation 16.15 19.42  
Sea Level Pressure  
Sea Level Pressure 30.07 in    
Wind  
Wind Speed 8 mph (South)    
Max Wind Speed 17 mph    
Max Gust Speed 23 mph    
Visibility 10 miles    
Events Rain    
T = Trace of Precipitation, MM = Missing Value Source: NWS Daily Summary

Daily Weather History Graph

Daily Weather History Graph

Search for Another Location

Airport or City:

Astronomy

Jul. 02, 2013 Rise Set
Actual Time 5:41 AM EDT 8:40 PM EDT
Civil Twilight 5:09 AM EDT 9:12 PM EDT
Nautical Twilight 4:27 AM EDT 9:54 PM EDT
Astronomical Twilight 3:39 AM EDT 10:42 PM EDT
Moon 1:43 AM EDT (7/2) 3:51 PM EDT (7/2)
Length of Visible Light 16h 03m
Length of Day
14h 58m
Waning Crescent, 26% of the Moon is Illuminated
Jul 2
Waning Crescent
Jul 8
New
Jul 15
First Quarter
Jul 22
Full
Jul 29
Last Quarter

Hourly Weather History & Observations

Time (EDT) Temp. Heat Index Dew Point Humidity Pressure Visibility Wind Dir Wind Speed Gust Speed Precip Events Conditions
12:56 AM 75.0 °F - 71.1 °F 87% 29.98 in 10.0 mi SE 5.8 mph - N/A   Overcast
1:56 AM 75.0 °F - 71.1 °F 87% 29.99 in 10.0 mi SSE 3.5 mph - N/A   Overcast
2:56 AM 75.0 °F - 71.1 °F 87% 29.99 in 8.0 mi South 5.8 mph - 0.00 in Rain Light Rain
3:56 AM 75.0 °F - 71.1 °F 87% 29.99 in 10.0 mi SSE 9.2 mph - 0.00 in   Mostly Cloudy
4:56 AM 73.9 °F - 71.1 °F 91% 30.00 in 10.0 mi South 5.8 mph - N/A   Mostly Cloudy
5:56 AM 73.9 °F - 71.1 °F 91% 30.02 in 10.0 mi SSE 4.6 mph - N/A   Mostly Cloudy
6:32 AM 73.4 °F - 71.6 °F 94% 30.03 in 10.0 mi SSE 6.9 mph - N/A   Overcast
6:56 AM 73.9 °F - 71.1 °F 91% 30.04 in 10.0 mi South 5.8 mph - N/A   Overcast
7:22 AM 75.2 °F - 71.6 °F 89% 30.05 in 10.0 mi SSE 5.8 mph - N/A   Overcast
7:56 AM 75.0 °F - 71.1 °F 87% 30.05 in 10.0 mi South 6.9 mph - N/A   Overcast
8:56 AM 77.0 °F - 70.0 °F 79% 30.06 in 10.0 mi SSE 9.2 mph - N/A   Mostly Cloudy
10:24 AM 77.0 °F - 69.8 °F 78% 30.07 in 10.0 mi South 8.1 mph - N/A   Overcast
10:56 AM 78.1 °F - 71.1 °F 79% 30.08 in 10.0 mi South 5.8 mph - N/A   Overcast
11:56 AM 78.1 °F - 70.0 °F 76% 30.09 in 10.0 mi South 10.4 mph - N/A   Overcast
12:56 PM 82.0 °F 86.3 °F 71.1 °F 69% 30.08 in 10.0 mi South 5.8 mph - N/A   Scattered Clouds
1:56 PM 82.0 °F 85.9 °F 70.0 °F 67% 30.07 in 10.0 mi South 12.7 mph 18.4 mph N/A   Overcast
2:56 PM 82.0 °F 85.5 °F 69.1 °F 65% 30.06 in 10.0 mi South 12.7 mph 21.9 mph N/A   Mostly Cloudy
3:56 PM 82.0 °F 85.5 °F 69.1 °F 65% 30.06 in 10.0 mi SSW 10.4 mph 20.7 mph N/A   Mostly Cloudy
4:56 PM 82.0 °F 85.5 °F 69.1 °F 65% 30.06 in 10.0 mi South 10.4 mph 19.6 mph N/A   Overcast
5:56 PM 79.0 °F - 70.0 °F 74% 30.09 in 10.0 mi South 12.7 mph 20.7 mph 0.00 in Rain Light Rain
6:56 PM 78.1 °F - 71.1 °F 79% 30.11 in 10.0 mi South 10.4 mph 16.1 mph 0.04 in   Overcast
7:56 PM 78.1 °F - 70.0 °F 76% 30.11 in 10.0 mi South 9.2 mph - N/A   Overcast
8:56 PM 75.9 °F - 66.0 °F 71% 30.12 in 10.0 mi SSW 10.4 mph 17.3 mph N/A   Mostly Cloudy
9:56 PM 75.9 °F - 68.0 °F 76% 30.14 in 10.0 mi South 6.9 mph - N/A   Mostly Cloudy
10:40 PM 75.2 °F - 69.8 °F 83% 30.14 in 10.0 mi South 3.5 mph - N/A   Mostly Cloudy
10:56 PM 75.0 °F - 69.1 °F 82% 30.14 in 10.0 mi South 3.5 mph - N/A   Mostly Cloudy
11:56 PM 75.0 °F - 68.0 °F 79% 30.15 in 10.0 mi SSW 6.9 mph - N/A   Mostly Cloudy